HELSINKI-MALMI current weather conditions

sailwx.info

Wind from 150 at 9 knots

Air temperature 1.0° C
Visibility: greater than 5.4 NM
Dewpoint -1.0° C

Last reported at 2014-Nov-24 23:50 UTC.
Time now 2014-Nov-25 00:46 UTC

Location: N 60°15' E 025°03'.
View on Google Maps.

See reports from other nearby stations

  
Tides and Currents Weather Stations Pressure Air Temp Water Temp Dewpoint Dewpoint Depression Visibility Wind Speed Wind Dir Waves Ship Positions
date/time (UTC)wind fromknots sea level pressurealtimeterstation pressurevisibilityair tempwater tempwave heightnotes
2014-Nov-24 23:50 150 9 5.4 1.0
2014-Nov-24 23:20 140 9 5.4 1.0
2014-Nov-24 22:50 140 11 5.4 1.0
2014-Nov-24 22:20 150 8 5.4 1.0
2014-Nov-24 21:50 150 7 5.4 1.0
2014-Nov-24 21:20 140 9 5.4 1.0
2014-Nov-24 20:50 160 8 5.4 1.0
2014-Nov-24 20:20 180 10 5.4 1.0
2014-Nov-24 19:50 160 8 5.4 1.0
2014-Nov-24 19:20 160 9 5.4 2.0
2014-Nov-24 18:50 150 8 5.4 1.0
2014-Nov-24 18:20 150 8 5.4 1.0
2014-Nov-24 17:50 150 7 5.4 1.0
2014-Nov-24 17:20 140 9 5.4 1.0
2014-Nov-24 16:50 140 9 5.4 1.0
2014-Nov-24 16:20 150 10 5.4 1.0
2014-Nov-24 15:50 150 7 5.4 2.0
2014-Nov-24 15:20 150 9 5.4 1.0
2014-Nov-24 14:50 150 11 5.4 1.0
2014-Nov-24 14:20 150 10 5.4 1.0
2014-Nov-24 13:50 150 8 5.4 1.0
2014-Nov-24 13:20 150 9 5.4 1.0
2014-Nov-24 12:50 150 8 5.4 1.0
2014-Nov-24 12:20 150 9 5.4 1.0
2014-Nov-24 11:50 150 9 5.4 1.0
2014-Nov-24 11:20 150 11 5.4 1.0
2014-Nov-24 10:50 150 8 5.4 1.0
2014-Nov-24 10:20 150 9 5.4 1.0
2014-Nov-24 09:50 150 8 5.4 1.0
2014-Nov-24 09:20 150 9 5.4 1.0
2014-Nov-24 08:50 160 8 5.4-0.0
2014-Nov-24 08:20 150 9 5.4-0.0
2014-Nov-24 07:50 150 6 5.4-0.0
2014-Nov-24 07:20 160 9 5.4-0.0
2014-Nov-24 06:50 140 8 5.4-0.0
2014-Nov-24 06:20 140 8 5.4 1.0
2014-Nov-24 05:50 150 7 5.4 1.0
2014-Nov-24 05:20 150 7 5.4 1.0
2014-Nov-24 04:50 170 9 5.4 1.0
2014-Nov-24 04:20 160 7 5.4 2.0
2014-Nov-24 03:50 160 6 5.4 2.0
2014-Nov-24 03:20 140 9 5.4 2.0
2014-Nov-24 02:50 140 6 5.4 2.0
2014-Nov-24 02:20 150 3 5.4 3.0
2014-Nov-24 01:50 130 3 4.9 2.0
2014-Nov-24 01:20 100 3 1.3 2.0 Mist.
2014-Nov-24 00:50 170 1 0.5 2.0
2014-Nov-24 00:20 170 8 1.6 2.0 Mist.
2014-Nov-23 23:50 170 6 1.3 2.0
2014-Nov-23 23:20 170 6 1.2 2.0 Mist.
2014-Nov-23 22:50 170 7 0.5 3.0
2014-Nov-23 22:20 180 7 3.8 3.0
2014-Nov-23 21:50 150 4 4.3 3.0
2014-Nov-23 21:20 150 3 3.2 3.0
2014-Nov-23 20:50 160 2 5.4 2.0
2014-Nov-23 20:20 130 3 2.7 1.0
2014-Nov-23 19:50 090 2 2.0 1.0
2014-Nov-23 19:20 360 2 3.2 1.0
2014-Nov-23 18:50 120 0 4.3 1.0
2014-Nov-23 18:20 4.3 1.0
2014-Nov-23 17:50 090 0 4.9 1.0
2014-Nov-23 17:20 070 2 4.9 1.0
2014-Nov-23 16:50 070 0 4.9 1.0
2014-Nov-23 16:20 100 3 4.9 1.0
2014-Nov-23 15:50 070 4 4.9 1.0
2014-Nov-23 15:20 5.4 1.0
2014-Nov-23 14:50 5.4 1.0
2014-Nov-23 14:20 5.4-0.0
2014-Nov-23 13:50 330 0 5.4 1.0
2014-Nov-23 13:20 5.4 1.0
2014-Nov-23 12:50 080 1 5.4 1.0
2014-Nov-23 12:20 070 3 5.4 1.0
2014-Nov-23 11:50 090 3 5.4 1.0
2014-Nov-23 11:20 080 3 5.4 1.0
2014-Nov-23 10:50 100 1 5.4-0.0
2014-Nov-23 10:20 090 3 5.4-0.0
2014-Nov-23 09:50 080 1 5.4-0.0
2014-Nov-23 09:20 080 4 5.4-0.0
2014-Nov-23 08:50 5.4-0.0
2014-Nov-23 08:20 070 3 5.4-1.0
2014-Nov-23 07:50 070 1 5.4-1.0
2014-Nov-23 07:20 5.4-1.0 Light snow.
2014-Nov-23 06:50 050 0 5.4-2.0
2014-Nov-23 06:20 5.4-2.0
2014-Nov-23 05:50 5.4-2.0
2014-Nov-23 05:20 5.4-2.0
2014-Nov-23 04:50 5.4-2.0
2014-Nov-23 04:20 5.4-2.0
2014-Nov-23 03:50 050 0 5.4-2.0
2014-Nov-23 03:20 4.9-2.0
2014-Nov-23 02:50 100 1 5.4-2.0
2014-Nov-23 02:20 070 1 5.4-2.0
2014-Nov-23 01:50 3.8-3.0
2014-Nov-23 01:20 3.8-3.0
2014-Nov-23 00:50 3.8-3.0
2014-Nov-23 00:20 3.8-3.0